Вернуться в каталог

FENGYUN 1C DEB

АктивенLEO
NORAD 31503·DEBRIS·🇨🇳 China

Запущен May 10, 1999 с Taiyuan Satellite Launch Center

Loading…

Ближайшие Пролёты (ближайшие 24 часа)

TLE

УстаревающийSource: Space-Track

Эпоха: Sep 10, 2026, 11:55 UTC

1 31503U 99025BWS 26253.49702730  .00001050  00000-0  47966-3 0  9998
2 31503 100.0785 163.9677 0048241 151.8073 208.5728 14.23556521681122

Отслеживайте FENGYUN 1C DEB в реальном времени с AllMySat

Download on the App Store